Погода в Рабаце

Хорватия     45°04′37″N   14°09′47″E
темп.,
°C
ветер,
м/с
пор.,
м/с
влажн.,
%
обл.,
%
осадки,
мм/ч
давл.,
гПа
погр.,
м
27 февраля, сб
сб2701:00+13с23670 0.0 102423
04:00+13ссв45640 0.0 102329
07:00+12св913750 0.0 1024298
10:00+12св9137146 0.0 1026488
13:00+12всв11156872 0.0 1027831
16:00+12св9145867 0.0 1027693
19:00+11св10136233 0.0 1029740
22:00+10всв915610 0.0 10311181
28 февраля, вс
вс2801:00+10св1013600 0.0 1032932
04:00+9св1012630 0.0 1031891
07:00+8св1113630 0.0 1032875
10:00+9св1014580 0.0 1032948
13:00+10св711530 0.0 1031958
16:00+11св69560 0.0 1030647
19:00+10св810570 0.0 1031647
22:00+9св78600 0.0 1031475
1 марта, пн
пн101:00+8св67610 0.0 1031438
04:00+8ссв56590 0.0 1030349
07:00+8св67570 0.0 1031340
10:00+10св58510 0.0 1031528
13:00+11св46570 0.0 1031247
16:00+12св68590 0.0 1030198
19:00+11св79660 0.0 1032401
22:00+10св79690 0.0 1032474
2 марта, вт
вт201:00+9св66670 0.0 1033357
04:00+9ссв56670 0.0 1033329
07:00+8ссв45670 0.0 1033305
10:00+9ссв33620 0.0 1033239
13:00+10в11520 0.0 1033140
16:00+11ююз22530 0.0 1032128
19:00+11з22760 0.0 103370
22:00+10ссв22690 0.0 103350
3 марта, ср
ср301:00+10с12670 0.0 103369
04:00+10с226633 0.0 103291
07:00+9с226551 0.0 1032123
10:00+10св116117 0.0 1032147
13:00+11ююв22618 0.0 1031171
16:00+11ююз336730 0.0 1029223
19:00+11ссз027745 0.0 102964
22:00+10всв117698 0.0 102941